| time (UTC) | temp C | wind direction | speed KPH | gust KPH | rain 1hr cm | rain 24hr cm | rain mn cm | humidity % | barometer mb |
| 20260507095637 | 5 | 56 | 0.0 | 0.0 | 0.00 | 4.37 | 0.41 | 99 | 1012.5 |
| 20260507092637 | 5 | 47 | 0.0 | 0.0 | 0.00 | 4.34 | 0.38 | 99 | 1012.1 |
| 20260507085637 | 5 | 19 | 0.0 | 0.0 | 0.00 | 4.34 | 0.38 | 99 | 1011.8 |
| 20260507082637 | 5 | 33 | 0.0 | 0.0 | 0.00 | 4.34 | 0.38 | 99 | 1011.5 |
| 20260507075636 | 5 | 42 | 0.0 | 0.0 | 0.00 | 4.34 | 0.38 | 99 | 1011.1 |
| 20260507072636 | 5 | 50 | 0.0 | 3.2 | 0.00 | 4.34 | 0.38 | 99 | 1010.8 |
| 20260507065637 | 5 | 51 | 1.6 | 4.8 | 0.00 | 4.34 | 0.38 | 99 | 1010.4 |
| 20260507062637 | 5 | 46 | 0.0 | 0.0 | 0.00 | 4.34 | 0.38 | 99 | 1010.1 |
| 20260507055637 | 6 | 44 | 0.0 | 0.0 | 0.00 | 4.32 | 0.36 | 99 | 1009.8 |
| 20260507052637 | 6 | 25 | 0.0 | 0.0 | 0.00 | 4.29 | 0.33 | 99 | 1009.4 |
| 20260507045637 | 6 | 40 | 3.2 | 4.8 | 0.00 | 4.27 | 0.30 | 99 | 1009.1 |
| 20260507042637 | 6 | 1 | 4.8 | 4.8 | 0.00 | 4.24 | 0.28 | 99 | 1008.8 |
| 20260507035636 | 6 | 14 | 1.6 | 3.2 | 0.00 | 4.24 | 0.28 | 99 | 1008.8 |
| 20260507032636 | 6 | 356 | 6.4 | 8.0 | 0.00 | 4.22 | 0.25 | 99 | 1008.8 |
| 20260507025637 | 6 | 2 | 3.2 | 4.8 | 0.00 | 4.19 | 0.23 | 99 | 1008.4 |
| 20260507022637 | 6 | 357 | 1.6 | 4.8 | 0.00 | 4.17 | 0.20 | 99 | 1008.1 |
| 20260507015637 | 6 | 306 | 0.0 | 1.6 | 0.00 | 4.14 | 0.18 | 99 | 1007.7 |
| 20260507012637 | 6 | 10 | 3.2 | 4.8 | 0.00 | 4.09 | 0.13 | 99 | 1007.7 |
| 20260507005637 | 6 | 16 | 4.8 | 6.4 | 0.00 | 4.06 | 0.10 | 99 | 1007.4 |
| 20260507002636 | 6 | 9 | 3.2 | 6.4 | 0.00 | 4.06 | 0.10 | 99 | 1007.4 |
| 20260506235637 | 6 | 10 | 4.8 | 8.0 | 0.00 | 4.04 | 0.08 | 99 | 1007.4 |
| 20260506232636 | 6 | 354 | 4.8 | 8.0 | 0.00 | 3.99 | 0.03 | 99 | 1007.4 |
| 20260506225637 | 6 | 15 | 1.6 | 3.2 | 0.00 | 3.99 | 0.03 | 99 | 1007.1 |
| 20260506222637 | 6 | 5 | 1.6 | 3.2 | 0.00 | 3.96 | 2.64 | 99 | 1007.1 |
| 20260506215637 | 6 | 351 | 3.2 | 4.8 | 0.00 | 3.96 | 2.64 | 99 | 1007.1 |
| 20260506212637 | 6 | 3 | 0.0 | 1.6 | 0.00 | 3.96 | 2.64 | 99 | 1006.7 |
| 20260506205636 | 6 | 8 | 1.6 | 3.2 | 0.00 | 3.94 | 2.62 | 99 | 1006.7 |
| 20260506202637 | 6 | 340 | 1.6 | 3.2 | 0.00 | 3.86 | 2.54 | 99 | 1006.4 |
| 20260506195637 | 6 | 345 | 0.0 | 0.0 | 0.00 | 3.84 | 2.51 | 99 | 1006.0 |
| 20260506192636 | 6 | 340 | 4.8 | 4.8 | 0.00 | 3.84 | 2.51 | 99 | 1005.7 |
| 20260506185636 | 7 | 356 | 3.2 | 4.8 | 0.00 | 3.81 | 2.49 | 99 | 1005.7 |
| 20260506182727 | 7 | 16 | 0.0 | 0.0 | 0.00 | 3.81 | 2.49 | 99 | 1005.4 |
| 20260506182637 | 7 | 16 | 0.0 | 0.0 | 0.00 | 3.81 | 2.49 | 99 | 1005.4 |
| 20260506175637 | 7 | 359 | 3.2 | 4.8 | 0.00 | 3.78 | 2.46 | 99 | 1005.4 |
| 20260506172637 | 7 | 1 | 4.8 | 6.4 | 0.00 | 3.76 | 2.44 | 99 | 1005.4 |
| 20260506165637 | 7 | 13 | 0.0 | 0.0 | 0.00 | 3.76 | 2.44 | 99 | 1005.0 |
| 20260506162637 | 7 | 1 | 1.6 | 3.2 | 0.00 | 3.76 | 2.44 | 99 | 1005.0 |
| 20260506155636 | 7 | 357 | 0.0 | 1.6 | 0.00 | 3.73 | 2.41 | 99 | 1005.0 |
| 20260506152637 | 7 | 27 | 0.0 | 1.6 | 0.00 | 3.73 | 2.41 | 99 | 1005.0 |
| 20260506145637 | 7 | 30 | 0.0 | 1.6 | 0.00 | 3.73 | 2.41 | 99 | 1005.0 |
| 20260506142637 | 7 | 23 | 0.0 | 0.0 | 0.00 | 3.73 | 2.41 | 99 | 1004.7 |
| 20260506135637 | 7 | 5 | 1.6 | 3.2 | 0.00 | 3.71 | 2.39 | 99 | 1005.0 |
| 20260506132636 | 7 | 355 | 3.2 | 4.8 | 0.00 | 3.68 | 2.36 | 99 | 1004.7 |
| 20260506125637 | 7 | 0 | 3.2 | 6.4 | 0.00 | 3.68 | 2.36 | 99 | 1004.4 |
| 20260506122636 | 6 | 3 | 8.0 | 8.0 | 0.00 | 3.68 | 2.36 | 99 | 1004.4 |
| 20260506115637 | 6 | 5 | 3.2 | 4.8 | 0.00 | 3.68 | 2.36 | 99 | 1004.4 |
| 20260506112636 | 6 | 7 | 1.6 | 3.2 | 0.00 | 3.68 | 2.36 | 99 | 1004.4 |
| 20260506105637 | 6 | 25 | 4.8 | 6.4 | 0.00 | 3.68 | 2.36 | 99 | 1004.0 |
| 20260506102637 | 6 | 14 | 3.2 | 4.8 | 0.00 | 3.68 | 2.36 | 99 | 1003.7 |